Showing default

LKW-1, 43034

Orbit data source: Space-Track

LKW-1, 43034 is a Chinese payload satellite in SSO that was launched on Sun, 03 Dec 2017 UTC via a CHANG ZHENG 2D launch vehicle from the Jiuquan Satellite Launch Center, China (JSC). Payload-class satellites include a variety of spacecraft equipped with specific instruments for various scientific and technological missions. These include communications satellites like Starlink; space stations such as the ISS; scientific satellites like the Hubble; Earth observation satellites from companies like Planet Labs, Umbra, and HawkEye 360; GPS; miniature CubeSats for education and research; and military/defense satellites.

Loading next visibility...
Identifier
43034, 2017-077A
Orbit
SSO
Country
Flag of CNCN / PRC
Related business
Manufacturer
CAST?
Mission
Operational Defense Imaging
Bus & Motor
LKW, Unknown motor
Mass
~2,000 kg wet, ~2,000 kg dry
Launch date (UTC)
2017-12-03 (9 years ago)
Launch vehicle
CHANG ZHENG 2D
Launch site
Jiuquan Satellite Launch Center, China (JSC)
Object type
Payload
Rocket body
Debris
Shape & HBR
Hex Cyl + 3 Pan, 5.0 m
Radar Cross Section
8.135 m², Large (>1 m²)

Expand to show TLE details & history
Last TLE update: 23 hours ago

TLE from 23 hours ago
0 LKW-1
1 43034U 17077A   26172.49855233  .00007380  00000-0  30854-3 0  9994
2 43034  97.0987 206.5044 0002315 107.2414 252.9077 15.23869646475353
Epoch: 2026-06-21T11:57Z
TLE epoch observation values (Epoch: 2026-06-21T11:57:54.921Z)
Latitude
-0.00007°
Longitude
117.32761°
Altitude
497.754 km
Speed
7.615 km/s
True Right ascension
13h 46m 01s
True Declination
0° 00' 00"
Sunlit
Object was in full shadow at epoch
Visualization orbit readout
Latitude
Unknown
Longitude
Unknown
Altitude
Unknown
Speed
Unknown
Apparent Right ascension
Unknown
Apparent Declination
Unknown
Sunlit
N/A
Visualization observer readout
Local Sidereal Time
21:40:52
Azimuth
Unknown
Elevation
Unknown
Doppler factor
Unknown
Orbital elements
Apogee altitude
492.72 km
Perigee altitude
489.539 km
Semi-major axis
6,869.267 km
Eccentricity
0.00023
Inclination
97.0987°
RAAN
206.5044°
Arg. of periapsis
107.2414°
True anomaly
252.88235°
Mean anomaly
252.9077°
Eccentric anomaly
252.89502°
Mean motion
3.81222 °/min
Orbital period
94.43 mins
BSTAR
0.00030854
Loading maneuver chart data...
Computing Atmospheric mass density...
Loading historical data...
Loading historical data...
Loading historical data...
Loading historical data...
Loading historical data...
Loading historical data...
Loading historical data...

Documentation

Showing up to 5 results
|